Time,TemperatureF,DewpointF,PressureIn,WindDirection,WindDirectionDegrees,WindSpeedMPH,WindSpeedGustMPH,Humidity,HourlyPrecipIn,Conditions,Clouds,dailyrainin,SoftwareType,DateUTC
2013-10-05 00:01:00,73.2,8.4,29.97,NE,55,7.6,12.8,8,0.00,,CLR,0.00,VWS V14.01,2013-10-05 07:01:00,
2013-10-05 00:06:00,73.0,8.3,29.97,NE,47,7.6,9.6,8,0.00,,CLR,0.00,VWS V14.01,2013-10-05 07:06:00,
2013-10-05 00:12:00,72.7,8.0,29.97,NNE,22,6.3,10.1,8,0.00,,CLR,0.00,VWS V14.01,2013-10-05 07:12:00,
2013-10-05 00:17:00,72.5,7.9,29.97,NE,44,7.6,8.3,8,0.00,,CLR,0.00,VWS V14.01,2013-10-05 07:17:00,
2013-10-05 00:23:00,72.1,7.6,29.97,ENE,62,5.4,10.5,8,0.00,,CLR,0.00,VWS V14.01,2013-10-05 07:23:00,
2013-10-05 00:28:00,72.1,7.6,29.97,East,79,8.1,10.1,8,0.00,,CLR,0.00,VWS V14.01,2013-10-05 07:28:00,
2013-10-05 00:33:00,72.1,7.6,29.97,NNE,21,4.0,9.2,8,0.00,,CLR,0.00,VWS V14.01,2013-10-05 07:33:00,
2013-10-05 00:38:00,71.9,7.5,29.97,NE,48,6.3,6.3,8,0.00,,CLR,0.00,VWS V14.01,2013-10-05 07:38:00,
2013-10-05 00:43:00,71.8,7.3,29.97,ENE,71,8.3,11.9,8,0.00,,CLR,0.00,VWS V14.01,2013-10-05 07:43:00,
2013-10-05 00:48:00,72.1,7.6,29.97,East,84,5.8,10.5,8,0.00,,CLR,0.00,VWS V14.01,2013-10-05 07:48:00,
2013-10-05 00:53:00,72.5,7.9,29.97,ENE,63,7.6,10.1,8,0.00,,CLR,0.00,VWS V14.01,2013-10-05 07:53:00,
2013-10-05 00:59:00,72.5,7.9,29.97,NE,53,8.1,8.1,8,0.00,,CLR,0.00,VWS V14.01,2013-10-05 07:59:00,
2013-10-05 01:04:00,72.5,7.9,29.97,North,7,5.8,10.5,8,0.00,,CLR,0.00,VWS V14.01,2013-10-05 08:04:00,
2013-10-05 01:10:00,72.3,7.7,29.97,ENE,62,3.6,5.4,8,0.00,,CLR,0.00,VWS V14.01,2013-10-05 08:10:00,
2013-10-05 01:16:00,72.1,7.6,29.97,East,95,5.8,8.3,8,0.00,,CLR,0.00,VWS V14.01,2013-10-05 08:16:00,
2013-10-05 01:21:00,71.9,7.5,29.97,NE,40,7.6,7.6,8,0.00,,CLR,0.00,VWS V14.01,2013-10-05 08:21:00,
2013-10-05 01:27:00,71.8,7.3,29.97,NE,43,7.6,7.6,8,0.00,,CLR,0.00,VWS V14.01,2013-10-05 08:27:00,
2013-10-05 01:32:00,71.6,7.2,29.97,NE,52,10.5,11.4,8,0.00,,CLR,0.00,VWS V14.01,2013-10-05 08:32:00,
2013-10-05 01:38:00,71.6,7.2,29.97,East,84,15.9,15.9,8,0.00,,CLR,0.00,VWS V14.01,2013-10-05 08:38:00,
2013-10-05 01:43:00,71.8,7.3,29.97,NNE,27,5.8,10.5,8,0.00,,CLR,0.00,VWS V14.01,2013-10-05 08:43:00,
2013-10-05 01:48:00,71.6,7.2,29.97,ENE,78,5.4,9.2,8,0.00,,CLR,0.00,VWS V14.01,2013-10-05 08:48:00,
2013-10-05 01:53:00,71.4,7.1,29.97,NE,56,8.3,14.5,8,0.00,,CLR,0.00,VWS V14.01,2013-10-05 08:53:00,
2013-10-05 01:59:00,71.8,7.3,29.97,NNE,13,5.8,12.8,8,0.00,,CLR,0.00,VWS V14.01,2013-10-05 08:59:00,
2013-10-05 02:04:00,71.8,7.3,29.97,NE,55,7.6,13.6,8,0.00,,CLR,0.00,VWS V14.01,2013-10-05 09:04:00,
2013-10-05 02:09:00,71.9,7.5,29.97,ENE,76,13.2,13.2,8,0.00,,CLR,0.00,VWS V14.01,2013-10-05 09:09:00,
2013-10-05 02:14:00,71.9,7.5,29.97,NE,51,8.1,10.5,8,0.00,,CLR,0.00,VWS V14.01,2013-10-05 09:14:00,
2013-10-05 02:19:00,71.9,7.5,29.97,NE,47,12.3,15.9,8,0.00,,CLR,0.00,VWS V14.01,2013-10-05 09:19:00,
2013-10-05 02:25:00,72.1,7.6,29.97,East,83,5.4,6.3,8,0.00,,CLR,0.00,VWS V14.01,2013-10-05 09:25:00,
2013-10-05 02:30:00,72.1,7.6,29.97,NE,39,10.5,10.5,8,0.00,,CLR,0.00,VWS V14.01,2013-10-05 09:30:00,
2013-10-05 02:35:00,72.1,7.6,29.97,NE,34,7.6,13.2,8,0.00,,CLR,0.00,VWS V14.01,2013-10-05 09:35:00,
2013-10-05 02:40:00,72.1,7.6,29.97,ENE,78,5.4,12.8,8,0.00,,CLR,0.00,VWS V14.01,2013-10-05 09:40:00,
2013-10-05 02:45:00,72.1,7.6,29.97,ENE,77,7.6,13.2,8,0.00,,CLR,0.00,VWS V14.01,2013-10-05 09:45:00,
2013-10-05 02:51:00,71.9,7.5,29.97,ENE,61,6.3,8.1,8,0.00,,CLR,0.00,VWS V14.01,2013-10-05 09:51:00,
2013-10-05 02:56:00,71.8,7.3,29.97,ENE,59,6.3,8.1,8,0.00,,CLR,0.00,VWS V14.01,2013-10-05 09:56:00,
2013-10-05 03:01:00,71.4,7.1,29.97,ENE,58,5.8,8.7,8,0.00,,CLR,0.00,VWS V14.01,2013-10-05 10:01:00,
2013-10-05 03:06:00,71.4,7.1,29.97,East,82,3.6,7.6,8,0.00,,CLR,0.00,VWS V14.01,2013-10-05 10:06:00,
2013-10-05 03:12:00,71.2,9.5,29.97,ENE,68,8.1,8.3,9,0.00,,CLR,0.00,VWS V14.01,2013-10-05 10:12:00,
2013-10-05 03:17:00,71.4,7.1,29.97,East,83,6.3,8.7,8,0.00,,CLR,0.00,VWS V14.01,2013-10-05 10:17:00,
2013-10-05 03:22:00,71.4,7.1,29.97,ENE,65,6.3,8.3,8,0.00,,CLR,0.00,VWS V14.01,2013-10-05 10:22:00,
2013-10-05 03:27:00,71.4,7.1,29.97,ENE,69,6.3,12.3,8,0.00,,CLR,0.00,VWS V14.01,2013-10-05 10:27:00,
2013-10-05 03:33:00,71.4,7.1,29.97,NE,41,5.8,8.3,8,0.00,,CLR,0.00,VWS V14.01,2013-10-05 10:33:00,
2013-10-05 03:38:00,71.6,7.2,29.97,East,83,8.1,11.0,8,0.00,,CLR,0.00,VWS V14.01,2013-10-05 10:38:00,
2013-10-05 03:44:00,71.4,7.1,29.97,East,90,10.1,11.0,8,0.00,,CLR,0.00,VWS V14.01,2013-10-05 10:44:00,
2013-10-05 03:50:00,71.2,9.5,29.97,NE,39,5.8,7.6,9,0.00,,CLR,0.00,VWS V14.01,2013-10-05 10:50:00,
2013-10-05 03:56:00,71.0,9.4,29.97,East,90,9.6,9.6,9,0.00,,CLR,0.00,VWS V14.01,2013-10-05 10:56:00,
2013-10-05 04:01:00,70.9,9.3,29.97,ENE,78,5.8,8.3,9,0.00,,CLR,0.00,VWS V14.01,2013-10-05 11:01:00,
2013-10-05 04:06:00,70.9,9.3,29.97,ENE,72,5.4,8.3,9,0.00,,CLR,0.00,VWS V14.01,2013-10-05 11:06:00,
2013-10-05 04:12:00,70.3,8.9,29.97,ENE,78,2.7,6.3,9,0.00,,CLR,0.00,VWS V14.01,2013-10-05 11:12:00,
2013-10-05 04:18:00,69.8,8.4,29.97,NE,56,4.0,5.4,9,0.00,,CLR,0.00,VWS V14.01,2013-10-05 11:18:00,
2013-10-05 04:23:00,69.4,8.2,29.97,NE,40,4.9,4.9,9,0.00,,CLR,0.00,VWS V14.01,2013-10-05 11:23:00,
2013-10-05 04:29:00,69.1,7.9,29.97,East,88,4.0,4.9,9,0.00,,CLR,0.00,VWS V14.01,2013-10-05 11:29:00,
2013-10-05 04:34:00,69.2,8.0,29.97,NNE,19,3.6,9.6,9,0.00,,CLR,0.00,VWS V14.01,2013-10-05 11:34:00,
2013-10-05 04:39:00,69.6,8.3,29.97,ENE,61,7.6,7.6,9,0.00,,CLR,0.00,VWS V14.01,2013-10-05 11:39:00,
2013-10-05 04:44:00,69.8,8.4,29.97,ENE,64,5.8,12.3,9,0.00,,CLR,0.00,VWS V14.01,2013-10-05 11:44:00,
2013-10-05 04:50:00,70.5,9.0,29.97,East,92,6.3,15.0,9,0.00,,CLR,0.00,VWS V14.01,2013-10-05 11:50:00,
2013-10-05 04:55:00,71.2,9.5,29.97,East,94,8.3,8.7,9,0.00,,CLR,0.00,VWS V14.01,2013-10-05 11:55:00,
2013-10-05 05:00:00,71.6,7.2,29.97,East,81,10.5,13.2,8,0.00,,CLR,0.00,VWS V14.01,2013-10-05 12:00:00,
2013-10-05 05:05:00,71.9,7.5,29.97,NE,52,5.8,15.4,8,0.00,,CLR,0.00,VWS V14.01,2013-10-05 12:05:00,
2013-10-05 05:11:00,72.3,7.7,29.97,North,9,9.2,13.2,8,0.00,,CLR,0.00,VWS V14.01,2013-10-05 12:11:00,
2013-10-05 05:16:00,72.1,7.6,29.97,NE,52,10.5,11.9,8,0.00,,CLR,0.00,VWS V14.01,2013-10-05 12:16:00,
2013-10-05 05:21:00,71.8,7.3,29.97,ENE,73,8.1,8.3,8,0.00,,CLR,0.00,VWS V14.01,2013-10-05 12:21:00,
2013-10-05 05:26:00,71.6,7.2,29.97,NNE,23,8.7,13.2,8,0.00,,CLR,0.00,VWS V14.01,2013-10-05 12:26:00,
2013-10-05 05:32:00,71.6,7.2,29.97,East,81,7.6,11.9,8,0.00,,CLR,0.00,VWS V14.01,2013-10-05 12:32:00,
2013-10-05 05:37:00,71.9,7.5,29.97,ENE,64,10.5,12.8,8,0.00,,CLR,0.00,VWS V14.01,2013-10-05 12:37:00,
2013-10-05 05:42:00,71.9,7.5,29.97,NE,38,9.6,15.0,8,0.00,,CLR,0.00,VWS V14.01,2013-10-05 12:42:00,
2013-10-05 05:47:00,72.3,7.7,29.97,NE,51,8.7,12.8,8,0.00,,CLR,0.00,VWS V14.01,2013-10-05 12:47:00,
2013-10-05 05:52:00,72.3,7.7,29.97,NE,49,8.3,12.8,8,0.00,,CLR,0.00,VWS V14.01,2013-10-05 12:52:00,
2013-10-05 05:57:00,71.9,7.5,29.97,NE,41,11.0,11.0,8,0.00,,CLR,0.00,VWS V14.01,2013-10-05 12:57:00,
2013-10-05 06:03:00,71.9,7.5,29.97,ENE,61,4.9,10.1,8,0.00,,CLR,0.00,VWS V14.01,2013-10-05 13:03:00,
2013-10-05 06:08:00,71.9,7.5,29.97,ENE,73,6.3,9.6,8,0.00,,CLR,0.00,VWS V14.01,2013-10-05 13:08:00,
2013-10-05 06:13:00,71.8,7.3,29.97,ENE,65,7.6,9.2,8,0.00,,CLR,0.00,VWS V14.01,2013-10-05 13:13:00,
2013-10-05 06:18:00,71.6,7.2,30.00,NE,46,5.8,6.3,8,0.00,,CLR,0.00,VWS V14.01,2013-10-05 13:18:00,
2013-10-05 06:24:00,71.0,9.4,30.00,NE,43,11.0,11.0,9,0.00,,CLR,0.00,VWS V14.01,2013-10-05 13:24:00,
2013-10-05 06:29:00,70.9,9.3,30.00,NNE,15,8.1,8.7,9,0.00,,CLR,0.00,VWS V14.01,2013-10-05 13:29:00,
2013-10-05 06:34:00,70.7,9.1,30.00,NNE,27,3.6,3.6,9,0.00,,CLR,0.00,VWS V14.01,2013-10-05 13:34:00,
2013-10-05 06:39:00,70.1,8.7,30.00,North,353,4.9,5.8,9,0.00,,CLR,0.00,VWS V14.01,2013-10-05 13:39:00,
2013-10-05 06:45:00,68.9,7.8,30.00,NNW,346,3.6,3.6,9,0.00,,CLR,0.00,VWS V14.01,2013-10-05 13:45:00,
2013-10-05 06:50:00,67.3,8.9,30.00,NNW,341,3.6,3.6,10,0.00,,CLR,0.00,VWS V14.01,2013-10-05 13:50:00,
2013-10-05 06:55:00,66.4,8.2,30.00,NNW,341,0.0,0.0,10,0.00,,CLR,0.00,VWS V14.01,2013-10-05 13:55:00,
2013-10-05 07:00:00,65.5,7.5,30.00,NNW,341,0.0,0.0,10,0.00,,CLR,0.00,VWS V14.01,2013-10-05 14:00:00,
2013-10-05 07:06:00,64.6,6.8,30.00,NNW,341,0.0,0.0,10,0.00,,CLR,0.00,VWS V14.01,2013-10-05 14:06:00,
2013-10-05 07:11:00,64.0,6.4,30.00,NNW,341,0.0,0.0,10,0.00,,CLR,0.00,VWS V14.01,2013-10-05 14:11:00,
2013-10-05 07:16:00,63.1,5.7,30.00,NNW,341,4.0,4.0,10,0.00,,CLR,0.00,VWS V14.01,2013-10-05 14:16:00,
2013-10-05 07:22:00,62.8,5.4,30.00,NNW,340,2.2,2.2,10,0.00,,CLR,0.00,VWS V14.01,2013-10-05 14:22:00,
2013-10-05 07:27:00,62.6,5.3,30.00,NNW,340,0.0,0.0,10,0.00,,CLR,0.00,VWS V14.01,2013-10-05 14:27:00,
2013-10-05 07:32:00,62.6,5.3,30.03,NNW,340,0.0,0.0,10,0.00,,CLR,0.00,VWS V14.01,2013-10-05 14:32:00,
2013-10-05 07:38:00,62.6,5.3,30.03,NNW,340,2.7,2.7,10,0.00,,CLR,0.00,VWS V14.01,2013-10-05 14:38:00,
2013-10-05 07:43:00,62.8,5.4,30.03,NNW,340,0.0,0.0,10,0.00,,CLR,0.00,VWS V14.01,2013-10-05 14:43:00,
2013-10-05 07:49:00,62.9,5.6,30.03,NNW,340,0.0,0.0,10,0.00,,CLR,0.00,VWS V14.01,2013-10-05 14:49:00,
2013-10-05 07:55:00,63.3,5.8,30.03,NNW,340,0.0,0.0,10,0.00,,CLR,0.00,VWS V14.01,2013-10-05 14:55:00,
2013-10-05 08:00:00,63.7,6.1,30.03,NNW,340,0.0,0.0,10,0.00,,CLR,0.00,VWS V14.01,2013-10-05 15:00:00,
2013-10-05 08:05:00,64.2,6.5,30.03,NNW,340,0.0,0.0,10,0.00,,CLR,0.00,VWS V14.01,2013-10-05 15:05:00,
2013-10-05 08:10:00,64.7,6.9,30.03,NNW,340,0.0,0.0,10,0.00,,CLR,0.00,VWS V14.01,2013-10-05 15:10:00,
2013-10-05 08:16:00,65.5,7.5,30.03,NNW,340,0.0,3.1,10,0.00,,CLR,0.00,VWS V14.01,2013-10-05 15:16:00,
2013-10-05 08:21:00,66.4,8.2,30.03,North,353,3.6,3.6,10,0.00,,CLR,0.00,VWS V14.01,2013-10-05 15:21:00,
2013-10-05 08:26:00,67.4,9.0,30.03,NE,34,5.4,5.8,10,0.00,,CLR,0.00,VWS V14.01,2013-10-05 15:26:00,
2013-10-05 08:31:00,68.9,7.8,30.03,NNE,22,3.6,3.6,9,0.00,,CLR,0.00,VWS V14.01,2013-10-05 15:31:00,
2013-10-05 08:37:00,71.2,9.5,30.03,NE,47,6.3,12.8,9,0.00,,CLR,0.00,VWS V14.01,2013-10-05 15:37:00,
2013-10-05 08:42:00,73.0,8.3,30.03,ENE,75,8.3,11.0,8,0.00,,CLR,0.00,VWS V14.01,2013-10-05 15:42:00,
2013-10-05 08:47:00,74.3,9.2,30.03,East,81,8.3,11.9,8,0.00,,CLR,0.00,VWS V14.01,2013-10-05 15:47:00,
2013-10-05 08:52:00,75.4,10.0,30.03,NNE,22,10.5,11.0,8,0.00,,CLR,0.00,VWS V14.01,2013-10-05 15:52:00,
2013-10-05 08:58:00,76.4,10.8,30.03,ENE,66,19.7,19.7,8,0.00,,CLR,0.00,VWS V14.01,2013-10-05 15:58:00,
2013-10-05 09:03:00,77.2,8.4,30.03,NE,47,17.4,17.4,7,0.00,,CLR,0.00,VWS V14.01,2013-10-05 16:03:00,
2013-10-05 09:08:00,77.7,8.8,30.03,NE,43,14.5,14.5,7,0.00,,CLR,0.00,VWS V14.01,2013-10-05 16:08:00,
2013-10-05 09:13:00,78.1,9.0,30.03,ENE,75,12.8,12.8,7,0.00,,CLR,0.00,VWS V14.01,2013-10-05 16:13:00,
2013-10-05 09:19:00,78.8,9.6,30.03,East,83,10.1,14.5,7,0.00,,CLR,0.00,VWS V14.01,2013-10-05 16:19:00,
2013-10-05 09:24:00,79.1,9.8,30.03,NE,54,17.0,17.0,7,0.00,,CLR,0.00,VWS V14.01,2013-10-05 16:24:00,
2013-10-05 09:29:00,79.3,10.0,30.03,ENE,70,15.4,15.4,7,0.00,,CLR,0.00,VWS V14.01,2013-10-05 16:29:00,
2013-10-05 09:35:00,80.0,16.2,30.03,ENE,69,8.3,12.8,9,0.00,,CLR,0.00,VWS V14.01,2013-10-05 16:35:00,
2013-10-05 09:40:00,80.2,16.3,30.03,SE,138,5.8,15.4,9,0.00,,CLR,0.00,VWS V14.01,2013-10-05 16:40:00,
2013-10-05 09:46:00,80.4,16.5,30.03,ENE,77,18.8,18.8,9,0.00,,CLR,0.00,VWS V14.01,2013-10-05 16:46:00,
2013-10-05 09:51:00,80.6,16.6,30.03,NNE,25,13.2,21.0,9,0.00,,CLR,0.00,VWS V14.01,2013-10-05 16:51:00,
2013-10-05 09:56:00,81.3,17.1,30.03,ENE,61,5.8,12.3,9,0.00,,CLR,0.00,VWS V14.01,2013-10-05 16:56:00,
2013-10-05 10:01:00,80.8,16.7,30.03,North,11,11.4,15.4,9,0.00,,CLR,0.00,VWS V14.01,2013-10-05 17:01:00,
2013-10-05 10:06:00,81.5,17.3,30.03,East,94,15.4,18.3,9,0.00,,CLR,0.00,VWS V14.01,2013-10-05 17:06:00,
2013-10-05 10:12:00,82.2,15.1,30.03,East,82,15.0,15.0,8,0.00,,CLR,0.00,VWS V14.01,2013-10-05 17:12:00,
2013-10-05 10:17:00,82.6,15.4,30.03,ENE,69,15.0,15.4,8,0.00,,CLR,0.00,VWS V14.01,2013-10-05 17:17:00,
2013-10-05 10:22:00,82.4,15.2,30.03,ESE,103,15.0,19.2,8,0.00,,CLR,0.00,VWS V14.01,2013-10-05 17:22:00,
2013-10-05 10:27:00,82.9,15.6,30.03,NE,49,5.8,11.0,8,0.00,,CLR,0.00,VWS V14.01,2013-10-05 17:27:00,
2013-10-05 10:32:00,83.3,15.9,30.03,East,82,8.7,15.0,8,0.00,,CLR,0.00,VWS V14.01,2013-10-05 17:32:00,
2013-10-05 10:38:00,83.8,16.3,30.03,ENE,68,8.7,16.8,8,0.00,,CLR,0.00,VWS V14.01,2013-10-05 17:38:00,
2013-10-05 10:43:00,84.7,17.0,30.03,NE,52,15.0,15.0,8,0.00,,CLR,0.00,VWS V14.01,2013-10-05 17:43:00,
2013-10-05 10:48:00,85.1,17.2,30.03,ENE,58,19.2,19.2,8,0.00,,CLR,0.00,VWS V14.01,2013-10-05 17:48:00,
2013-10-05 10:53:00,84.7,17.0,30.03,ENE,71,15.0,16.3,8,0.00,,CLR,0.00,VWS V14.01,2013-10-05 17:53:00,
2013-10-05 10:58:00,85.1,17.2,30.03,East,87,17.4,17.4,8,0.00,,CLR,0.00,VWS V14.01,2013-10-05 17:58:00,
2013-10-05 11:04:00,85.3,17.4,30.03,ENE,65,16.8,17.9,8,0.00,,CLR,0.00,VWS V14.01,2013-10-05 18:04:00,
2013-10-05 11:10:00,85.3,17.4,30.03,East,79,8.1,12.8,8,0.00,,CLR,0.00,VWS V14.01,2013-10-05 18:10:00,
2013-10-05 11:16:00,85.8,17.8,30.03,NE,56,10.1,10.1,8,0.00,,,0.00,VWS V14.01,2013-10-05 18:16:00,
2013-10-05 11:22:00,86.0,17.9,30.03,ENE,68,11.0,14.5,8,0.00,,CLR,0.00,VWS V14.01,2013-10-05 18:22:00,
2013-10-05 11:27:00,85.3,17.4,30.03,East,81,8.1,12.8,8,0.00,,CLR,0.00,VWS V14.01,2013-10-05 18:27:00,
2013-10-05 11:32:00,86.9,18.6,30.03,ENE,76,15.0,15.0,8,0.00,,CLR,0.00,VWS V14.01,2013-10-05 18:32:00,
2013-10-05 11:37:00,86.5,18.3,30.03,NE,45,11.0,13.2,8,0.00,,CLR,0.00,VWS V14.01,2013-10-05 18:37:00,
2013-10-05 11:43:00,87.2,18.8,30.03,SE,127,10.1,15.4,8,0.00,,CLR,0.00,VWS V14.01,2013-10-05 18:43:00,
2013-10-05 11:49:00,87.8,16.1,30.03,East,90,10.5,15.9,7,0.00,,CLR,0.00,VWS V14.01,2013-10-05 18:49:00,
2013-10-05 11:54:00,87.8,16.1,30.03,NE,49,12.8,12.8,7,0.00,,CLR,0.00,VWS V14.01,2013-10-05 18:54:00,
2013-10-05 12:00:00,88.1,16.4,30.03,NNE,12,4.0,11.4,7,0.00,,CLR,0.00,VWS V14.01,2013-10-05 19:00:00,
2013-10-05 12:05:00,87.6,16.0,30.03,ENE,69,5.4,8.7,7,0.00,,CLR,0.00,VWS V14.01,2013-10-05 19:05:00,
2013-10-05 12:11:00,87.8,16.1,30.03,East,84,10.5,14.5,7,0.00,,CLR,0.00,VWS V14.01,2013-10-05 19:11:00,
2013-10-05 12:16:00,88.1,16.4,30.03,East,81,8.1,12.8,7,0.00,,CLR,0.00,VWS V14.01,2013-10-05 19:16:00,
2013-10-05 12:22:00,89.6,17.5,30.03,East,96,5.8,15.0,7,0.00,,CLR,0.00,VWS V14.01,2013-10-05 19:22:00,
2013-10-05 12:28:00,89.8,17.6,30.03,ENE,60,8.7,15.4,7,0.00,,CLR,0.00,VWS V14.01,2013-10-05 19:28:00,
2013-10-05 12:34:00,89.6,17.5,30.00,NE,34,11.4,15.4,7,0.00,,CLR,0.00,VWS V14.01,2013-10-05 19:34:00,
2013-10-05 12:39:00,90.8,18.4,30.00,East,82,11.9,11.9,7,0.00,,CLR,0.00,VWS V14.01,2013-10-05 19:39:00,
2013-10-05 12:45:00,88.3,16.5,30.00,NE,51,8.3,10.1,7,0.00,,CLR,0.00,VWS V14.01,2013-10-05 19:45:00,
2013-10-05 12:50:00,90.1,17.8,30.00,NE,47,10.5,12.3,7,0.00,,CLR,0.00,VWS V14.01,2013-10-05 19:50:00,
2013-10-05 12:56:00,89.2,17.2,30.00,East,89,8.3,10.5,7,0.00,,CLR,0.00,VWS V14.01,2013-10-05 19:56:00,
2013-10-05 13:01:00,89.9,17.7,30.00,ENE,77,3.6,8.1,7,0.00,,CLR,0.00,VWS V14.01,2013-10-05 20:01:00,
2013-10-05 13:06:00,89.2,17.2,30.00,ESE,107,8.7,8.7,7,0.00,,CLR,0.00,VWS V14.01,2013-10-05 20:06:00,
2013-10-05 13:11:00,89.0,17.1,30.00,ENE,66,11.9,12.3,7,0.00,,CLR,0.00,VWS V14.01,2013-10-05 20:11:00,
2013-10-05 13:17:00,89.8,17.6,30.00,East,80,10.1,11.4,7,0.00,,CLR,0.00,VWS V14.01,2013-10-05 20:17:00,
2013-10-05 13:23:00,91.4,15.2,30.00,ENE,57,11.0,15.0,6,0.00,,CLR,0.00,VWS V14.01,2013-10-05 20:23:00,
2013-10-05 13:28:00,89.6,17.5,30.00,ENE,70,11.9,11.9,7,0.00,,CLR,0.00,VWS V14.01,2013-10-05 20:28:00,
2013-10-05 13:33:00,90.3,18.0,29.97,East,85,2.2,10.1,7,0.00,,CLR,0.00,VWS V14.01,2013-10-05 20:33:00,
2013-10-05 13:38:00,89.9,17.7,29.97,ENE,74,8.7,15.0,7,0.00,,CLR,0.00,VWS V14.01,2013-10-05 20:38:00,
2013-10-05 13:43:00,91.7,15.5,29.97,East,82,10.1,13.2,6,0.00,,CLR,0.00,VWS V14.01,2013-10-05 20:43:00,
2013-10-05 13:48:00,93.0,16.4,29.97,SSE,159,6.7,11.9,6,0.00,,CLR,0.00,VWS V14.01,2013-10-05 20:48:00,
2013-10-05 13:54:00,91.2,15.1,29.97,East,92,4.9,10.1,6,0.00,,CLR,0.00,VWS V14.01,2013-10-05 20:54:00,
2013-10-05 13:59:00,91.4,15.2,29.97,East,79,6.3,6.3,6,0.00,,CLR,0.00,VWS V14.01,2013-10-05 20:59:00,
2013-10-05 14:04:00,93.7,16.9,29.97,ENE,68,8.1,11.0,6,0.00,,CLR,0.00,VWS V14.01,2013-10-05 21:04:00,
2013-10-05 14:09:00,91.7,15.5,29.97,East,88,7.6,11.0,6,0.00,,CLR,0.00,VWS V14.01,2013-10-05 21:09:00,
2013-10-05 14:14:00,90.8,18.4,29.97,East,97,3.6,10.1,7,0.00,,CLR,0.00,VWS V14.01,2013-10-05 21:14:00,
2013-10-05 14:20:00,91.7,15.5,29.97,SE,129,5.4,8.3,6,0.00,,CLR,0.00,VWS V14.01,2013-10-05 21:20:00,
2013-10-05 14:25:00,89.4,17.3,29.97,ESE,112,4.0,12.3,7,0.00,,CLR,0.00,VWS V14.01,2013-10-05 21:25:00,
2013-10-05 14:30:00,90.8,18.4,29.97,East,94,5.8,7.6,7,0.00,,CLR,0.00,VWS V14.01,2013-10-05 21:30:00,
2013-10-05 14:35:00,92.5,16.0,29.97,SE,131,4.0,8.7,6,0.00,,CLR,0.00,VWS V14.01,2013-10-05 21:35:00,
2013-10-05 14:41:00,94.1,17.1,29.97,East,86,6.7,6.7,6,0.00,,CLR,0.00,VWS V14.01,2013-10-05 21:41:00,
2013-10-05 14:46:00,94.8,17.6,29.97,ESE,111,4.9,4.9,6,0.00,,CLR,0.00,VWS V14.01,2013-10-05 21:46:00,
2013-10-05 14:51:00,93.4,16.6,29.97,ESE,123,8.7,8.7,6,0.00,,CLR,0.00,VWS V14.01,2013-10-05 21:51:00,
2013-10-05 14:56:00,93.5,16.7,29.97,SSE,153,4.9,5.8,6,0.00,,CLR,0.00,VWS V14.01,2013-10-05 21:56:00,
2013-10-05 15:02:00,93.2,16.5,29.94,East,94,5.8,8.7,6,0.00,,CLR,0.00,VWS V14.01,2013-10-05 22:02:00,
2013-10-05 15:07:00,93.9,17.0,29.94,ESE,123,4.0,7.2,6,0.00,,CLR,0.00,VWS V14.01,2013-10-05 22:07:00,
2013-10-05 15:12:00,93.4,16.6,29.94,SE,127,5.4,8.1,6,0.00,,CLR,0.00,VWS V14.01,2013-10-05 22:12:00,
2013-10-05 15:17:00,94.8,17.6,29.94,ESE,117,5.8,5.8,6,0.00,,CLR,0.00,VWS V14.01,2013-10-05 22:17:00,
2013-10-05 15:23:00,94.1,17.1,29.94,ESE,106,6.7,10.1,6,0.00,,CLR,0.00,VWS V14.01,2013-10-05 22:23:00,
2013-10-05 15:28:00,92.6,16.1,29.94,East,96,3.6,5.4,6,0.00,,CLR,0.00,VWS V14.01,2013-10-05 22:28:00,
2013-10-05 15:33:00,93.7,16.9,29.94,SE,125,3.6,4.0,6,0.00,,CLR,0.00,VWS V14.01,2013-10-05 22:33:00,
2013-10-05 15:39:00,94.3,17.3,29.94,SSW,201,8.1,8.1,6,0.00,,CLR,0.00,VWS V14.01,2013-10-05 22:39:00,
2013-10-05 15:45:00,91.7,15.5,29.94,WSW,252,3.6,6.3,6,0.00,,CLR,0.00,VWS V14.01,2013-10-05 22:45:00,
2013-10-05 15:51:00,92.8,16.2,29.94,SW,216,5.8,6.7,6,0.00,,CLR,0.00,VWS V14.01,2013-10-05 22:51:00,
2013-10-05 15:56:00,92.3,15.8,29.94,WSW,245,5.4,5.4,6,0.00,,CLR,0.00,VWS V14.01,2013-10-05 22:56:00,
2013-10-05 16:01:00,91.7,15.5,29.94,West,275,4.0,5.8,6,0.00,,CLR,0.00,VWS V14.01,2013-10-05 23:01:00,
2013-10-05 16:06:00,92.5,16.0,29.94,South,169,3.6,3.6,6,0.00,,CLR,0.00,VWS V14.01,2013-10-05 23:06:00,
2013-10-05 16:12:00,93.5,16.7,29.94,SSW,196,0.0,0.0,6,0.00,,CLR,0.00,VWS V14.01,2013-10-05 23:12:00,
2013-10-05 16:17:00,93.5,16.7,29.94,West,265,5.4,5.4,6,0.00,,CLR,0.00,VWS V14.01,2013-10-05 23:17:00,
2013-10-05 16:22:00,90.1,17.8,29.94,West,279,11.0,11.9,7,0.00,,CLR,0.00,VWS V14.01,2013-10-05 23:22:00,
2013-10-05 16:27:00,89.0,17.1,29.94,WNW,299,6.3,8.7,7,0.00,,CLR,0.00,VWS V14.01,2013-10-05 23:27:00,
2013-10-05 16:33:00,87.2,18.8,29.94,WSW,255,10.5,10.5,8,0.00,,CLR,0.00,VWS V14.01,2013-10-05 23:33:00,
2013-10-05 16:38:00,88.3,16.5,29.94,NW,321,6.3,6.3,7,0.00,,CLR,0.00,VWS V14.01,2013-10-05 23:38:00,
2013-10-05 16:43:00,89.0,17.1,29.94,NW,304,6.3,7.2,7,0.00,,CLR,0.00,VWS V14.01,2013-10-05 23:43:00,
2013-10-05 16:48:00,89.2,17.2,29.94,NW,325,5.4,6.3,7,0.00,,CLR,0.00,VWS V14.01,2013-10-05 23:48:00,
2013-10-05 16:54:00,88.7,16.8,29.94,West,259,7.6,7.6,7,0.00,,CLR,0.00,VWS V14.01,2013-10-05 23:54:00,
2013-10-05 16:59:00,88.7,16.8,29.94,NW,304,7.6,8.3,7,0.00,,CLR,0.00,VWS V14.01,2013-10-05 23:59:00,
2013-10-05 17:04:00,88.5,16.7,29.94,NW,306,5.8,8.1,7,0.00,,CLR,0.00,VWS V14.01,2013-10-06 00:04:00,
2013-10-05 17:09:00,88.0,16.3,29.94,West,272,8.1,8.1,7,0.00,,,0.00,VWS V14.01,2013-10-06 00:09:00,
2013-10-05 17:15:00,87.6,16.0,29.94,WNW,293,4.0,6.3,7,0.00,,CLR,0.00,VWS V14.01,2013-10-06 00:15:00,
2013-10-05 17:21:00,87.6,16.0,29.94,WNW,301,4.9,7.6,7,0.00,,,0.00,VWS V14.01,2013-10-06 00:21:00,
2013-10-05 17:26:00,87.2,18.8,29.94,WNW,296,4.9,5.8,8,0.00,,,0.00,VWS V14.01,2013-10-06 00:26:00,
2013-10-05 17:31:00,86.3,18.2,29.94,West,263,5.4,6.3,8,0.00,,,0.00,VWS V14.01,2013-10-06 00:31:00,
2013-10-05 17:36:00,86.2,18.0,29.94,NW,308,3.6,5.4,8,0.00,,,0.00,VWS V14.01,2013-10-06 00:36:00,
2013-10-05 17:41:00,86.0,17.9,29.94,NW,312,5.4,5.8,8,0.00,,,0.00,VWS V14.01,2013-10-06 00:41:00,
2013-10-05 17:47:00,85.4,17.5,29.94,North,357,4.0,6.3,8,0.00,,,0.00,VWS V14.01,2013-10-06 00:47:00,
2013-10-05 17:52:00,85.1,17.2,29.94,NW,312,8.3,8.3,8,0.00,,,0.00,VWS V14.01,2013-10-06 00:52:00,
2013-10-05 17:57:00,84.7,17.0,29.94,NW,310,3.6,4.0,8,0.00,,,0.00,VWS V14.01,2013-10-06 00:57:00,
2013-10-05 18:02:00,84.2,16.6,29.94,NW,323,3.6,7.2,8,0.00,,,0.00,VWS V14.01,2013-10-06 01:02:00,
2013-10-05 18:08:00,83.1,15.8,29.94,West,280,7.2,7.2,8,0.00,,,0.00,VWS V14.01,2013-10-06 01:08:00,
2013-10-05 18:14:00,81.8,17.5,29.94,WNW,288,6.3,8.1,9,0.00,,,0.00,VWS V14.01,2013-10-06 01:14:00,
2013-10-05 18:19:00,81.5,17.3,29.94,WNW,287,2.2,3.6,9,0.00,,,0.00,VWS V14.01,2013-10-06 01:19:00,
2013-10-05 18:25:00,80.4,16.5,29.94,WNW,297,6.3,7.2,9,0.00,,,0.00,VWS V14.01,2013-10-06 01:25:00,
2013-10-05 18:30:00,79.7,15.9,29.94,WNW,298,5.8,6.7,9,0.00,,,0.00,VWS V14.01,2013-10-06 01:30:00,
2013-10-05 18:36:00,79.3,10.0,29.94,NW,316,4.9,7.6,7,0.00,,CLR,0.00,VWS V14.01,2013-10-06 01:36:00,
2013-10-05 18:42:00,78.6,9.4,29.94,West,276,2.2,4.0,7,0.00,,CLR,0.00,VWS V14.01,2013-10-06 01:42:00,
2013-10-05 18:47:00,78.2,9.2,29.94,WSW,256,2.7,3.1,7,0.00,,CLR,0.00,VWS V14.01,2013-10-06 01:47:00,
2013-10-05 18:52:00,77.7,8.8,29.94,WNW,291,4.0,4.0,7,0.00,,CLR,0.00,VWS V14.01,2013-10-06 01:52:00,
2013-10-05 18:57:00,77.5,8.6,29.94,NW,310,3.6,4.0,7,0.00,,CLR,0.00,VWS V14.01,2013-10-06 01:57:00,
2013-10-05 19:03:00,76.8,8.1,29.94,WNW,295,4.0,4.9,7,0.00,,CLR,0.00,VWS V14.01,2013-10-06 02:03:00,
2013-10-05 19:08:00,76.3,10.7,29.94,WNW,301,3.6,5.8,8,0.00,,CLR,0.00,VWS V14.01,2013-10-06 02:08:00,
2013-10-05 19:14:00,75.9,10.4,29.94,NNW,334,3.1,3.6,8,0.00,,CLR,0.00,VWS V14.01,2013-10-06 02:14:00,
2013-10-05 19:19:00,75.4,10.0,29.94,NW,321,2.2,3.1,8,0.00,,CLR,0.00,VWS V14.01,2013-10-06 02:19:00,
2013-10-05 19:24:00,75.0,9.8,29.94,NW,315,2.7,3.1,8,0.00,,CLR,0.00,VWS V14.01,2013-10-06 02:24:00,
2013-10-05 19:29:00,74.6,9.5,29.94,NNW,338,0.0,0.0,8,0.00,,CLR,0.00,VWS V14.01,2013-10-06 02:29:00,
2013-10-05 19:35:00,74.1,9.1,29.97,West,272,2.7,3.1,8,0.00,,CLR,0.00,VWS V14.01,2013-10-06 02:35:00,
2013-10-05 19:40:00,73.9,8.9,29.97,NW,308,0.0,0.0,8,0.00,,CLR,0.00,VWS V14.01,2013-10-06 02:40:00,
2013-10-05 19:45:00,73.6,8.7,29.97,NW,325,0.0,0.0,8,0.00,,CLR,0.00,VWS V14.01,2013-10-06 02:45:00,
2013-10-05 19:50:00,73.2,8.4,29.97,North,5,0.0,0.0,8,0.00,,CLR,0.00,VWS V14.01,2013-10-06 02:50:00,
2013-10-05 19:56:00,72.5,7.9,29.97,WNW,293,0.0,0.0,8,0.00,,CLR,0.00,VWS V14.01,2013-10-06 02:56:00,
2013-10-05 20:01:00,72.3,7.7,29.97,NE,46,3.1,3.6,8,0.00,,CLR,0.00,VWS V14.01,2013-10-06 03:01:00,
2013-10-05 20:06:00,71.9,7.5,29.97,NNW,345,0.0,0.0,8,0.00,,CLR,0.00,VWS V14.01,2013-10-06 03:06:00,
2013-10-05 20:11:00,71.6,7.2,29.97,NNW,345,0.0,0.0,8,0.00,,CLR,0.00,VWS V14.01,2013-10-06 03:11:00,
2013-10-05 20:17:00,71.2,9.5,29.97,North,349,0.0,0.0,9,0.00,,CLR,0.00,VWS V14.01,2013-10-06 03:17:00,
2013-10-05 20:23:00,70.7,9.1,29.97,North,349,0.0,0.0,9,0.00,,CLR,0.00,VWS V14.01,2013-10-06 03:23:00,
2013-10-05 20:28:00,70.3,8.9,29.97,North,349,0.0,0.0,9,0.00,,CLR,0.00,VWS V14.01,2013-10-06 03:28:00,
2013-10-05 20:34:00,69.6,8.3,29.97,ESE,114,0.0,0.0,9,0.00,,CLR,0.00,VWS V14.01,2013-10-06 03:34:00,
2013-10-05 20:39:00,69.4,8.2,29.97,ESE,114,0.0,0.0,9,0.00,,CLR,0.00,VWS V14.01,2013-10-06 03:39:00,
2013-10-05 20:44:00,69.1,7.9,29.97,ESE,114,0.0,0.0,9,0.00,,CLR,0.00,VWS V14.01,2013-10-06 03:44:00,
2013-10-05 20:49:00,68.7,7.6,29.97,ESE,114,0.0,0.0,9,0.00,,CLR,0.00,VWS V14.01,2013-10-06 03:49:00,
2013-10-05 20:55:00,68.3,7.3,29.97,ESE,114,0.0,0.0,9,0.00,,CLR,0.00,VWS V14.01,2013-10-06 03:55:00,
2013-10-05 21:00:00,68.0,7.1,29.97,ESE,114,0.0,0.0,9,0.00,,CLR,0.00,VWS V14.01,2013-10-06 04:00:00,
2013-10-05 21:01:00,67.8,6.9,29.97,ESE,114,0.0,0.0,9,0.00,,CLR,0.00,VWS V14.01,2013-10-06 04:01:00,
2013-10-05 21:02:00,67.8,6.9,29.97,ESE,114,0.0,0.0,9,0.00,,CLR,0.00,VWS V14.01,2013-10-06 04:02:00,
2013-10-05 21:03:00,67.6,9.1,29.97,ESE,114,0.0,0.0,10,0.00,,CLR,0.00,VWS V14.01,2013-10-06 04:03:00,
2013-10-05 21:08:00,67.4,9.0,29.97,ESE,114,0.0,0.0,10,0.00,,CLR,0.00,VWS V14.01,2013-10-06 04:08:00,
2013-10-05 21:09:00,67.3,8.9,29.97,ESE,114,0.0,0.0,10,0.00,,CLR,0.00,VWS V14.01,2013-10-06 04:09:00,
2013-10-05 21:10:00,67.3,8.9,29.97,ESE,114,0.0,0.0,10,0.00,,CLR,0.00,VWS V14.01,2013-10-06 04:10:00,
2013-10-05 21:15:00,66.9,8.6,29.97,ESE,114,0.0,0.0,10,0.00,,CLR,0.00,VWS V14.01,2013-10-06 04:15:00,
2013-10-05 21:20:00,66.5,8.3,29.97,ENE,77,0.0,0.0,10,0.00,,CLR,0.00,VWS V14.01,2013-10-06 04:20:00,
2013-10-05 21:25:00,66.2,8.0,29.97,ENE,77,0.0,0.0,10,0.00,,CLR,0.00,VWS V14.01,2013-10-06 04:25:00,
2013-10-05 21:30:00,66.0,7.9,29.97,ENE,78,0.0,0.0,10,0.00,,CLR,0.00,VWS V14.01,2013-10-06 04:30:00,
2013-10-05 21:35:00,65.6,7.6,29.97,ENE,77,0.0,0.0,10,0.00,,CLR,0.00,VWS V14.01,2013-10-06 04:35:00,
2013-10-05 21:41:00,65.5,7.5,29.97,ENE,78,0.0,0.0,10,0.00,,CLR,0.00,VWS V14.01,2013-10-06 04:41:00,
2013-10-05 21:46:00,65.1,7.2,29.97,ENE,61,0.0,0.0,10,0.00,,CLR,0.00,VWS V14.01,2013-10-06 04:46:00,
2013-10-05 21:51:00,64.9,7.1,29.97,NE,36,0.0,0.0,10,0.00,,CLR,0.00,VWS V14.01,2013-10-06 04:51:00,
2013-10-05 21:57:00,64.6,10.8,29.97,North,1,0.0,0.0,12,0.00,,CLR,0.00,VWS V14.01,2013-10-06 04:57:00,
2013-10-05 22:02:00,64.4,10.7,30.00,NE,55,4.9,4.9,12,0.00,,CLR,0.00,VWS V14.01,2013-10-06 05:02:00,
2013-10-05 22:08:00,64.0,12.2,30.00,North,357,0.0,0.0,13,0.00,,CLR,0.00,VWS V14.01,2013-10-06 05:08:00,
2013-10-05 22:13:00,64.0,12.2,30.00,WNW,300,3.1,3.6,13,0.00,,CLR,0.00,VWS V14.01,2013-10-06 05:13:00,
2013-10-05 22:18:00,64.2,10.6,30.00,NW,305,0.0,0.0,12,0.00,,CLR,0.00,VWS V14.01,2013-10-06 05:18:00,
2013-10-05 22:23:00,64.0,12.2,30.00,NNW,334,0.0,0.0,13,0.00,,CLR,0.00,VWS V14.01,2013-10-06 05:23:00,
2013-10-05 22:28:00,63.7,11.9,30.00,NNW,334,3.6,4.0,13,0.00,,CLR,0.00,VWS V14.01,2013-10-06 05:28:00,
2013-10-05 22:34:00,63.1,11.5,30.00,NNW,334,0.0,0.0,13,0.00,,CLR,0.00,VWS V14.01,2013-10-06 05:34:00,
2013-10-05 22:40:00,62.9,11.4,30.00,NNW,334,0.0,0.0,13,0.00,,CLR,0.00,VWS V14.01,2013-10-06 05:40:00,
2013-10-05 22:46:00,62.6,11.1,30.00,NNW,334,0.0,0.0,13,0.00,,CLR,0.00,VWS V14.01,2013-10-06 05:46:00,
2013-10-05 22:51:00,62.2,10.8,30.00,NNW,334,0.0,0.0,13,0.00,,CLR,0.00,VWS V14.01,2013-10-06 05:51:00,
2013-10-05 22:56:00,61.9,10.5,30.00,NNW,334,0.0,2.7,13,0.00,,CLR,0.00,VWS V14.01,2013-10-06 05:56:00,
2013-10-05 23:01:00,61.7,10.4,30.00,NNW,334,2.7,4.0,13,0.00,,CLR,0.00,VWS V14.01,2013-10-06 06:01:00,
2013-10-05 23:06:00,61.5,10.2,30.00,NNW,334,0.0,2.2,13,0.00,,CLR,0.00,VWS V14.01,2013-10-06 06:06:00,
2013-10-05 23:12:00,61.1,9.9,30.00,NNW,334,0.0,0.0,13,0.00,,CLR,0.00,VWS V14.01,2013-10-06 06:12:00,
2013-10-05 23:17:00,61.0,14.5,30.00,NNW,334,0.0,0.0,16,0.00,,CLR,0.00,VWS V14.01,2013-10-06 06:17:00,
2013-10-05 23:22:00,60.6,14.2,30.00,NNW,334,0.0,0.0,16,0.00,,CLR,0.00,VWS V14.01,2013-10-06 06:22:00,
2013-10-05 23:27:00,60.4,14.0,30.00,NNW,334,0.0,0.0,16,0.00,,CLR,0.00,VWS V14.01,2013-10-06 06:27:00,
2013-10-05 23:33:00,60.2,13.9,30.00,NNW,334,0.0,0.0,16,0.00,,CLR,0.00,VWS V14.01,2013-10-06 06:33:00,
2013-10-05 23:38:00,60.1,17.7,30.00,NNW,334,0.0,0.0,19,0.00,,CLR,0.00,VWS V14.01,2013-10-06 06:38:00,
2013-10-05 23:43:00,59.9,17.5,30.00,NNW,334,0.0,0.0,19,0.00,,CLR,0.00,VWS V14.01,2013-10-06 06:43:00,
2013-10-05 23:48:00,59.7,17.4,30.00,NNW,334,0.0,0.0,19,0.00,,CLR,0.00,VWS V14.01,2013-10-06 06:48:00,
2013-10-05 23:54:00,59.5,17.2,30.00,NNW,334,0.0,0.0,19,0.00,,CLR,0.00,VWS V14.01,2013-10-06 06:54:00,
2013-10-05 23:59:00,59.2,17.0,30.00,NNW,334,0.0,0.0,19,0.00,,CLR,0.00,VWS V14.01,2013-10-06 06:59:00,